Location: B?jaj?g
(11.7167°N, 92.6667°E)
Time: 22:45:32
(UTC+00:00)

CZ-3 Stage 3 - Pass Details

Date: 18 September 2020
Orbit: 520 x 34983 km, 30.7° (Epoch: 29 October)

Event Time Altitude Azimuth Distance (km) Brightness Sun altitude
Exits shadow 22:42:17 23° 254° (WSW) 1,405 4.3 -14.6°
Maximum altitude 22:44:15 37° 201° (SSW) 1,283 4.4 -14.1°
Drops below altitude 10° 22:53:00 10° 135° (SE) 4,964 8.2 -12.0°
Sets 23:01:53 0° 129° (SE) 8,752 9.7 -9.8°
